| time (UTC) | temp F | wind direction | speed knots | gust knots | rain 1hr in | rain 24hr in | rain mn in | humidity % | barometer mb |
| 20260904183042 | 62 | 56 | 3.5 | 6.1 | 0.00 | 0.00 | 0.00 | ||
| 20260904170120 | 57 | 83 | 0.9 | 3.5 | 0.00 | 0.00 | 0.00 | ||
| 20260904160120 | 54 | 102 | 0.9 | 2.6 | 0.00 | 0.00 | 0.00 | ||
| 20260904143049 | 51 | 82 | 0.0 | 0.9 | 0.00 | 0.00 | 0.00 | ||
| 20260904140119 | 50 | 80 | 0.0 | 0.9 | 0.00 | 0.00 | 0.00 | ||
| 20260904133038 | 50 | 109 | 0.0 | 0.9 | 0.00 | 0.00 | 0.00 | ||
| 20260904130117 | 49 | 77 | 0.0 | 0.9 | 0.00 | 0.00 | 0.00 | ||
| 20260904123102 | 49 | 68 | 0.0 | 0.0 | 0.00 | 0.00 | 0.00 | ||
| 20260904120109 | 50 | 69 | 0.0 | 0.9 | 0.00 | 0.00 | 0.00 | ||
| 20260904110108 | 50 | 68 | 0.0 | 0.9 | 0.00 | 0.00 | 0.00 | ||
| 20260904103105 | 51 | 68 | 0.0 | 0.9 | 0.00 | 0.00 | 0.00 | ||
| 20260904100118 | 51 | 68 | 0.0 | 0.9 | 0.00 | 0.00 | 0.00 | ||
| 20260904090110 | 52 | 68 | 0.0 | 0.9 | 0.00 | 0.00 | 0.00 | ||
| 20260904080113 | 53 | 67 | 0.0 | 1.7 | 0.00 | 0.00 | 0.00 | ||
| 20260904073036 | 53 | 57 | 0.0 | 0.9 | 0.00 | 0.00 | 0.00 | ||
| 20260904070109 | 53 | 127 | 0.0 | 0.0 | 0.00 | 0.00 | 0.00 | ||
| 20260904063104 | 53 | 66 | 0.0 | 0.9 | 0.00 | 0.00 | 0.00 | ||
| 20260904053036 | 55 | 66 | 0.0 | 0.9 | 0.00 | 0.00 | 0.00 | ||
| 20260904050108 | 56 | 66 | 0.0 | 1.7 | 0.00 | 0.00 | 0.00 | ||
| 20260904043051 | 57 | 65 | 0.0 | 0.9 | 0.00 | 0.00 | 0.00 | ||
| 20260904040104 | 57 | 65 | 0.0 | 1.7 | 0.00 | 0.00 | 0.00 | ||
| 20260904033054 | 57 | 65 | 0.0 | 1.7 | 0.00 | 0.00 | 0.00 | ||
| 20260904030110 | 58 | 0 | 0.0 | 1.7 | 0.00 | 0.00 | 0.00 | ||
| 20260904023048 | 59 | 66 | 0.0 | 1.7 | 0.00 | 0.00 | 0.00 | ||
| 20260904020059 | 60 | 73 | 0.9 | 3.5 | 0.00 | 0.00 | 0.00 | ||
| 20260904013048 | 62 | 61 | 2.6 | 4.3 | 0.00 | 0.00 | 0.00 | ||
| 20260904010122 | 62 | 73 | 3.5 | 5.2 | 0.00 | 0.00 | 0.00 | ||
| 20260904003044 | 63 | 62 | 3.5 | 5.2 | 0.00 | 0.00 | 0.00 | ||
| 20260904000116 | 63 | 58 | 0.9 | 2.6 | 0.00 | 0.00 | 0.00 | ||
| 20260903233101 | 63 | 53 | 1.7 | 6.1 | 0.00 | 0.00 | 0.00 | ||
| 20260903223059 | 63 | 83 | 0.9 | 5.2 | 0.00 | 0.00 | 0.00 | ||
| 20260903213033 | 62 | 63 | 0.9 | 5.2 | 0.00 | 0.00 | 0.00 | ||
| 20260903210107 | 63 | 98 | 1.7 | 7.8 | 0.00 | 0.00 | 0.00 | ||
| 20260903203046 | 63 | 30 | 2.6 | 6.1 | 0.00 | 0.00 | 0.00 | ||
| 20260903200114 | 62 | 54 | 2.6 | 7.0 | 0.00 | 0.00 | 0.00 | ||
| 20260903193036 | 61 | 264 | 0.9 | 7.0 | 0.00 | 0.00 | 0.00 |